When you browse on this site, cookies collect data to enhance your experience and personalize the content and advertising you see.
Visit our Privacy Policy to learn more. By continuing to use the site, you agree to this use of cookies and data.
  • In Portugal
  • List of Countries
  • For 7 days
  • Water Temperature
  • Satellite Maps
  • Weather Map
  • Weather Widgets
  • user-avatar
    Login

    Hourly Weather Suryanino

    Today, 20 May, Monday

    Time Temperature Precipitation Wind Pressure Humidity
    00:00 +13°C° 0 mm 1 mps 746 mmHg 83%
    01:00 +12°C° 0 mm 1 mps 747 mmHg 84%
    02:00 +10°C° 0 mm 2 mps 747 mmHg 86%
    03:00 +12°C° 0 mm 2 mps 747 mmHg 85%
    04:00 +12°C° 0 mm 1 mps 747 mmHg 84%
    05:00 +12°C° 0 mm 1 mps 747 mmHg 83%
    06:00 +14°C° 0 mm 1 mps 748 mmHg 76%
    07:00 +16°C° 0 mm 1 mps 748 mmHg 70%
    08:00 +19°C° 0 mm 1 mps 748 mmHg 63%
    09:00 +20°C° 0 mm 1 mps 748 mmHg 60%
    10:00 +22°C° 0 mm 1 mps 748 mmHg 56%
    11:00 +21°C° 0 mm 0 mps 748 mmHg 52%
    12:00 +23°C° 0 mm 1 mps 748 mmHg 50%
    13:00 +23°C° 0 mm 1 mps 748 mmHg 48%
    14:00 +24°C° 0 mm 1 mps 748 mmHg 46%
    15:00 +23°C° 0 mm 1 mps 747 mmHg 49%
    16:00 +23°C° 0 mm 1 mps 747 mmHg 53%
    17:00 +23°C° 0 mm 1 mps 747 mmHg 56%
    18:00 +21°C° 0 mm 1 mps 747 mmHg 61%
    19:00 +19°C° 0 mm 1 mps 747 mmHg 66%
    20:00 +16°C° 0 mm 2 mps 747 mmHg 71%
    21:00 +15°C° 0 mm 2 mps 747 mmHg 74%
    22:00 +14°C° 0 mm 2 mps 747 mmHg 76%
    23:00 +14°C° 0 mm 2 mps 748 mmHg 79%

    Tomorrow, 21 May, Tuesday

    Time Temperature Precipitation Wind Pressure Humidity
    00:00 +13°C° 0 mm 2 mps 748 mmHg 82%
    01:00 +12°C° 0 mm 2 mps 748 mmHg 84%
    02:00 +12°C° 0 mm 2 mps 748 mmHg 87%
    03:00 +12°C° 0 mm 2 mps 748 mmHg 86%
    04:00 +12°C° 0 mm 2 mps 748 mmHg 86%
    05:00 +12°C° 0 mm 2 mps 748 mmHg 85%
    06:00 +14°C° 0 mm 2 mps 748 mmHg 79%
    07:00 +16°C° 0 mm 3 mps 748 mmHg 72%
    08:00 +18°C° 0 mm 3 mps 748 mmHg 65%
    09:00 +19°C° 0 mm 3 mps 748 mmHg 62%
    10:00 +20°C° 0 mm 4 mps 747 mmHg 58%
    11:00 +20°C° 0 mm 4 mps 747 mmHg 54%
    12:00 +21°C° 0 mm 4 mps 747 mmHg 54%
    13:00 +21°C° 0 mm 4 mps 747 mmHg 53%
    14:00 +21°C° 0 mm 4 mps 746 mmHg 53%
    15:00 +21°C° 0 mm 4 mps 746 mmHg 57%
    16:00 +21°C° 0 mm 3 mps 745 mmHg 61%
    17:00 +20°C° 0 mm 3 mps 745 mmHg 65%
    18:00 +19°C° 0 mm 3 mps 745 mmHg 71%
    19:00 +17°C° 0 mm 3 mps 745 mmHg 77%
    20:00 +14°C° 0 mm 3 mps 744 mmHg 84%
    21:00 +13°C° 0 mm 3 mps 744 mmHg 86%
    22:00 +14°C° 0 mm 2 mps 744 mmHg 89%
    23:00 +13°C° 0 mm 2 mps 744 mmHg 91%

    Day after tomorrow, 22 May, Wednesday

    Time Temperature Precipitation Wind Pressure Humidity
    00:00 +13°C° 0 mm 2 mps 744 mmHg 92%
    01:00 +13°C° 0 mm 2 mps 744 mmHg 92%
    02:00 +13°C° 0 mm 2 mps 743 mmHg 93%
    03:00 +13°C° 0 mm 2 mps 743 mmHg 91%
    04:00 +13°C° 0 mm 2 mps 743 mmHg 90%
    05:00 +13°C° 0 mm 2 mps 742 mmHg 88%
    06:00 +15°C° 0 mm 2 mps 742 mmHg 83%
    07:00 +17°C° 0 mm 3 mps 742 mmHg 78%
    08:00 +19°C° 0 mm 3 mps 742 mmHg 74%
    09:00 +20°C° 0.6 mm 3 mps 742 mmHg 72%
    10:00 +21°C° 0.6 mm 4 mps 742 mmHg 71%
    11:00 +22°C° 0.6 mm 4 mps 741 mmHg 70%
    12:00 +22°C° 1 mm 4 mps 741 mmHg 72%
    13:00 +22°C° 1 mm 4 mps 741 mmHg 74%
    14:00 +22°C° 1 mm 4 mps 740 mmHg 76%
    15:00 +21°C° 0.4 mm 3 mps 740 mmHg 78%
    16:00 +21°C° 0.4 mm 3 mps 740 mmHg 81%
    17:00 +21°C° 0.4 mm 2 mps 739 mmHg 84%
    18:00 +20°C° 0.5 mm 2 mps 739 mmHg 87%
    19:00 +19°C° 0.5 mm 2 mps 739 mmHg 90%
    20:00 +17°C° 0.5 mm 2 mps 739 mmHg 93%
    21:00 +17°C° 0.3 mm 2 mps 739 mmHg 94%
    22:00 +16°C° 0.3 mm 2 mps 739 mmHg 95%
    23:00 +16°C° 0.3 mm 2 mps 739 mmHg 96%

    23 May, Thursday

    Time Temperature Precipitation Wind Pressure Humidity
    00:00 +15°C° 0 mm 2 mps 738 mmHg 96%
    01:00 +15°C° 0 mm 2 mps 738 mmHg 96%
    02:00 +15°C° 0 mm 2 mps 738 mmHg 96%
    03:00 +15°C° 0 mm 2 mps 738 mmHg 96%
    04:00 +15°C° 0 mm 2 mps 738 mmHg 95%
    05:00 +15°C° 0 mm 2 mps 738 mmHg 95%
    06:00 +17°C° 0 mm 2 mps 738 mmHg 90%
    07:00 +19°C° 0 mm 2 mps 738 mmHg 85%
    08:00 +20°C° 0 mm 3 mps 738 mmHg 80%
    09:00 +21°C° 0.5 mm 3 mps 738 mmHg 75%
    10:00 +22°C° 0.5 mm 3 mps 737 mmHg 70%
    11:00 +25°C° 0.5 mm 3 mps 737 mmHg 64%
    12:00 +25°C° 0.3 mm 3 mps 737 mmHg 63%
    13:00 +25°C° 0.3 mm 3 mps 737 mmHg 61%
    14:00 +26°C° 0.3 mm 3 mps 737 mmHg 60%
    15:00 +25°C° 0.7 mm 2 mps 737 mmHg 63%
    16:00 +25°C° 0.7 mm 2 mps 736 mmHg 65%
    17:00 +25°C° 0.7 mm 1 mps 736 mmHg 68%
    18:00 +23°C° 0.8 mm 1 mps 736 mmHg 72%
    19:00 +21°C° 0.8 mm 1 mps 736 mmHg 77%
    20:00 +19°C° 0.8 mm 1 mps 736 mmHg 81%
    21:00 +18°C° 0 mm 1 mps 736 mmHg 82%
    22:00 +18°C° 0 mm 1 mps 736 mmHg 84%
    23:00 +18°C° 0 mm 1 mps 736 mmHg 85%

    24 May, Friday

    Time Temperature Precipitation Wind Pressure Humidity
    00:00 +16°C° 0.3 mm 1 mps 736 mmHg 87%
    01:00 +16°C° 0.3 mm 1 mps 736 mmHg 89%
    02:00 +15°C° 0.3 mm 1 mps 736 mmHg 91%
    03:00 +16°C° 0.4 mm 1 mps 736 mmHg 91%
    04:00 +15°C° 0.4 mm 0 mps 737 mmHg 92%
    05:00 +15°C° 0.4 mm 0 mps 737 mmHg 92%
    06:00 +19°C° 0.5 mm 1 mps 737 mmHg 89%
    07:00 +20°C° 0.5 mm 1 mps 737 mmHg 85%
    08:00 +21°C° 0.5 mm 1 mps 737 mmHg 82%
    09:00 +22°C° 1.5 mm 1 mps 737 mmHg 78%
    10:00 +23°C° 1.5 mm 1 mps 737 mmHg 75%
    11:00 +23°C° 1.5 mm 2 mps 736 mmHg 71%
    12:00 +24°C° 1.1 mm 2 mps 736 mmHg 69%
    13:00 +24°C° 1.1 mm 2 mps 736 mmHg 67%
    14:00 +24°C° 1.1 mm 2 mps 736 mmHg 64%
    15:00 +24°C° 1.1 mm 2 mps 736 mmHg 69%
    16:00 +23°C° 1.1 mm 2 mps 736 mmHg 74%
    17:00 +23°C° 1.1 mm 2 mps 735 mmHg 80%
    18:00 +20°C° 0.8 mm 2 mps 735 mmHg 83%
    19:00 +19°C° 0.8 mm 3 mps 735 mmHg 87%
    20:00 +17°C° 0.8 mm 3 mps 735 mmHg 91%
    21:00 +17°C° 0.2 mm 2 mps 735 mmHg 91%
    22:00 +16°C° 0.2 mm 2 mps 735 mmHg 92%
    23:00 +16°C° 0.2 mm 2 mps 735 mmHg 93%

    25 May, Saturday

    Time Temperature Precipitation Wind Pressure Humidity
    00:00 +16°C° 0 mm 2 mps 734 mmHg 93%
    01:00 +15°C° 0 mm 2 mps 734 mmHg 92%
    02:00 +15°C° 0 mm 2 mps 734 mmHg 92%
    03:00 +15°C° 0 mm 2 mps 734 mmHg 92%
    04:00 +16°C° 0 mm 2 mps 734 mmHg 92%
    05:00 +16°C° 0 mm 2 mps 734 mmHg 92%
    06:00 +17°C° 0.1 mm 2 mps 734 mmHg 90%
    07:00 +18°C° 0.1 mm 2 mps 734 mmHg 87%
    08:00 +20°C° 0.1 mm 2 mps 734 mmHg 84%
    09:00 +21°C° 0.9 mm 3 mps 734 mmHg 80%
    10:00 +22°C° 0.9 mm 3 mps 734 mmHg 75%
    11:00 +22°C° 0.9 mm 3 mps 733 mmHg 71%
    12:00 +22°C° 1 mm 3 mps 733 mmHg 72%
    13:00 +22°C° 1 mm 3 mps 733 mmHg 74%
    14:00 +22°C° 1 mm 3 mps 733 mmHg 75%
    15:00 +22°C° 0.1 mm 3 mps 733 mmHg 76%
    16:00 +23°C° 0.1 mm 2 mps 733 mmHg 76%
    17:00 +21°C° 0.1 mm 2 mps 733 mmHg 77%
    18:00 +20°C° 1.1 mm 2 mps 733 mmHg 82%
    19:00 +18°C° 1.1 mm 2 mps 733 mmHg 86%
    20:00 +17°C° 1.1 mm 2 mps 733 mmHg 91%
    21:00 +16°C° 0.4 mm 2 mps 733 mmHg 92%
    22:00 +16°C° 0.4 mm 2 mps 733 mmHg 94%
    23:00 +16°C° 0.4 mm 2 mps 733 mmHg 95%
    Show more